Theta_e
310 307 307 305 305 301 299 296 292 288 288 290 292 296 296 295 294 292 292 290 289 288
306 305 304 301 302 300 297 292 288 287 287 287 288 292 291 291 288 290 289 289 288 287
302 303 299 298 297 296 295 290 286 286 285 286 286 289 289 289 288 288 287 287 286 285
302 299 298 296 297 294 291 287 285 284 285 284 284 288 288 287 287 286 285 285 285 284
300 298 296 295 295 292 289 286 284 284 283 284 284 286 287 285 285 285 284 284 283 282
298 296 294 293 293 290 288 285 283 283 282 283 283 285 286 285 285 285 284 283 282 281
297 295 293 292 290 288 286 284 283 282 283 283 283 284 284 284 284 284 283 283 282 281
296 295 292 289 287 285 285 283 282 282 282 282 282 283 283 283 283 282 282 281 281 281
294 291 289 287 286 283 283 283 282 281 281 281 281 284 285 283 282 282 281 280 279 280
290 288 287 286 284 282 282 282 281 281 281 280 281 285 285 284 281 281 281 280 279 279
287 287 286 285 283 282 282 281 281 280 281 281 281 286 286 283 281 281 280 280 280 280
287 286 285 284 283 282 281 281 281 281 280 280 280 286 286 283 281 281 280 280 280 281
287 285 284 284 284 284 282 281 280 280 281 281 281 286 286 283 282 281 280 279 279 281
285 284 285 284 284 283 281 280 279 279 279 280 282 284 286 286 284 285 283 282 281 281
Wind_Speed
17 11 12 13 11 11 11 10 12 11 10 9 9 12 12 9 8 8 7 9 6 5
16 17 14 12 12 9 8 7 10 10 9 8 9 12 12 8 9 9 8 8 8 7
16 15 10 10 13 12 10 12 11 11 10 10 9 12 12 10 11 11 8 7 9 8
15 14 12 12 14 13 13 12 12 12 12 12 12 14 13 12 13 13 11 10 10 9
16 16 15 13 15 14 14 12 13 12 11 11 12 14 14 14 12 13 13 12 11 11
16 16 16 14 14 14 14 13 13 13 14 13 12 14 13 13 13 12 12 12 12 12
16 16 14 13 13 13 13 14 14 14 14 14 13 13 12 12 12 11 10 11 10 10
13 15 13 13 12 12 13 13 14 14 13 13 12 11 14 13 12 12 11 10 8 7
14 13 13 13 13 13 13 13 13 15 15 15 10 20 22 16 12 11 11 10 7 6
13 13 13 13 13 13 14 14 15 14 14 14 13 25 24 20 11 11 10 9 8 6
12 13 13 14 14 13 12 13 14 14 14 13 11 24 23 19 11 9 9 9 9 9
13 13 13 13 13 12 11 11 12 12 13 13 9 23 24 17 10 9 9 8 9 9
11 12 13 13 13 11 11 11 9 9 10 11 11 24 24 16 8 9 7 7 8 12
10 11 11 10 9 10 10 9 9 10 8 10 12 17 26 24 11 9 8 8 8 7
Wind_Direction
208 201 204 195 186 192 193 184 176 177 179 174 166 177 176 174 171 167 169 166 161 130
199 202 198 190 196 195 187 173 169 172 168 164 162 172 165 161 156 157 153 141 135 127
201 198 188 178 191 188 181 174 165 166 161 162 162 167 164 156 154 149 146 145 141 133
197 189 185 187 194 188 181 170 169 169 163 163 162 168 165 158 157 152 148 150 147 140
200 193 188 189 192 184 182 171 169 165 164 166 163 168 166 157 160 158 159 156 151 148
201 196 193 191 187 187 180 170 168 168 169 169 169 168 170 163 162 164 161 162 161 155
201 196 189 186 184 179 176 171 174 179 175 174 168 170 168 160 159 158 160 162 162 157
201 197 186 180 178 175 177 179 179 174 175 173 172 172 167 162 159 159 158 161 155 173
199 187 184 176 174 175 180 178 176 180 176 175 177 177 172 163 158 154 157 164 161 157
188 186 182 173 173 180 184 175 181 181 177 180 175 177 173 165 156 156 162 155 166 158
187 187 180 177 180 178 179 183 181 182 183 177 176 175 171 164 150 153 161 165 176 184
188 183 179 183 179 173 170 177 182 178 174 172 162 170 168 162 157 157 169 183 186 194
181 178 178 175 175 175 173 169 163 162 166 154 157 173 174 167 161 164 174 192 199 204
170 171 170 164 160 156 153 145 146 144 147 155 166 175 181 182 178 177 177 193 208 213